User: anonymous   Login
Location: Maccacari
(45.1333°N, 11.1333°E)
Time: 05:16:57
(UTC+00:00)
Language:

Vanguard 3 - Orbit

View from above orbital plane
View from above orbital plane
View from above satellite
View from above satellite

Ground track
Ground track

The orbit data is extracted from the following two-line orbital elements,

1 00020U 59007A   21027.36182653  .00000126  00000-0  54805-4 0  9994
2 00020  33.3439 104.3389 1665808  14.5330 349.7741 11.55794732256515
Epoch (UTC): 27 January 2021 08:41:01
Eccentricity: 0.1665808
inclination: 33.3439°
perigee height: 508 km
apogee height: 3261 km
right ascension of ascending node: 104.3389°
argument of perigee: 14.5330°
revolutions per day: 11.55794732
mean anomaly at epoch: 349.7741°
orbit number at epoch: 25651

The dashed part of the orbit path shows where the satellite is in the earth's shadow,  

DLR